START_TIME,STEP,MOV.,P11,t_acc.,P23,t_acc.,P27,t_acc.,A4,t_acc.
1979-07-01 00:00:24.100 ,0,0,0.,4.8,0.,4.8,0.,4.8,0.,4.8
1979-07-01 00:00:28.900 ,0,0,1.,4.8,0.,4.8,0.,4.8,0.,4.8
1979-07-01 00:00:33.700 ,0,0,0.,4.8,0.,4.8,0.,4.8,0.,4.8
1979-07-01 00:00:38.500 ,0,0,1.,4.8,0.,4.8,0.,4.8,0.,4.8
1979-07-01 00:00:43.300 ,0,0,0.,4.8,0.,4.8,0.,4.8,0.,4.8
1979-07-01 00:00:48.100 ,1,0,0.,4.8,0.,4.8,0.,4.8,0.,4.8
1979-07-01 00:00:52.900 ,1,0,2.,4.8,0.,4.8,0.,4.8,0.,4.8
1979-07-01 00:00:57.700 ,1,0,1.,4.8,0.,4.8,0.,4.8,0.,4.8
1979-07-01 00:01:02.500 ,1,0,1.,4.8,0.,4.8,0.,4.8,1.,4.8
1979-07-01 00:01:07.300 ,1,0,1.,4.8,0.,4.8,0.,4.8,0.,4.8
1979-07-01 00:01:12.100 ,1,0,0.,4.8,0.,4.8,0.,4.8,0.,4.8
1979-07-01 00:01:16.900 ,1,0,2.,4.8,0.,4.8,0.,4.8,0.,4.8
1979-07-01 00:01:21.700 ,1,0,0.,4.8,0.,4.8,0.,4.8,0.,4.8
1979-07-01 00:01:26.500 ,1,0,0.,4.8,0.,4.8,0.,4.8,0.,4.8
1979-07-01 00:01:31.300 ,1,0,1.,4.8,0.,4.8,0.,4.8,0.,4.8
1979-07-01 00:01:36.100 ,2,0,0.,4.8,0.,4.8,0.,4.8,0.,4.8
1979-07-01 00:01:40.900 ,2,0,0.,4.8,0.,4.8,0.,4.8,0.,4.8
1979-07-01 00:01:45.700 ,2,0,0.,4.8,0.,4.8,0.,4.8,0.,4.8
1979-07-01 00:01:50.500 ,2,0,0.,4.8,0.,4.8,0.,4.8,0.,4.8
1979-07-01 00:01:55.300 ,2,0,0.,4.8,0.,4.8,0.,4.8,0.,4.8
1979-07-01 00:02:00.100 ,2,0,0.,4.8,0.,4.8,0.,4.8,0.,4.8
1979-07-01 00:02:04.900 ,2,0,1.,4.8,0.,4.8,0.,4.8,0.,4.8
1979-07-01 00:02:09.700 ,2,0,1.,4.8,0.,4.8,0.,4.8,0.,4.8
1979-07-01 00:02:14.500 ,2,0,0.,4.8,0.,4.8,0.,4.8,0.,4.8
1979-07-01 00:02:19.300 ,2,0,0.,4.8,0.,4.8,0.,4.8,0.,4.8
1979-07-01 00:02:24.100 ,3,0,2.,4.8,0.,4.8,0.,4.8,0.,4.8
1979-07-01 00:02:28.900 ,3,0,0.,4.8,0.,4.8,0.,4.8,0.,4.8
1979-07-01 00:02:33.700 ,3,0,1.,4.8,0.,4.8,0.,4.8,0.,4.8
1979-07-01 00:02:38.500 ,3,0,0.,4.8,0.,4.8,1.,4.8,0.,4.8
1979-07-01 00:02:43.300 ,3,0,0.,4.8,0.,4.8,0.,4.8,0.,4.8
1979-07-01 00:02:48.100 ,3,0,0.,4.8,0.,4.8,0.,4.8,0.,4.8
1979-07-01 00:02:52.900 ,3,0,1.,4.8,0.,4.8,0.,4.8,0.,4.8
1979-07-01 00:02:57.700 ,3,0,1.,4.8,0.,4.8,0.,4.8,0.,4.8
1979-07-01 00:03:02.500 ,3,0,1.,4.8,0.,4.8,0.,4.8,0.,4.8
1979-07-01 00:03:07.300 ,3,0,0.,4.8,0.,4.8,0.,4.8,0.,4.8
1979-07-01 00:03:12.100 ,4,0,0.,4.8,0.,4.8,0.,4.8,0.,4.8
1979-07-01 00:03:16.900 ,4,0,1.,4.8,0.,4.8,0.,4.8,0.,4.8
1979-07-01 00:03:21.700 ,4,0,0.,4.8,0.,4.8,0.,4.8,0.,4.8
1979-07-01 00:03:26.500 ,4,0,0.,4.8,0.,4.8,0.,4.8,0.,4.8
1979-07-01 00:03:31.300 ,4,0,0.,4.8,0.,4.8,0.,4.8,0.,4.8
1979-07-01 00:03:36.100 ,4,0,1.,4.8,0.,4.8,0.,4.8,0.,4.8
1979-07-01 00:03:40.900 ,4,0,1.,4.8,0.,4.8,0.,4.8,0.,4.8
1979-07-01 00:03:45.700 ,4,0,0.,4.8,0.,4.8,1.,4.8,0.,4.8
1979-07-01 00:03:50.500 ,4,0,1.,4.8,0.,4.8,0.,4.8,0.,4.8
1979-07-01 00:03:55.300 ,4,0,1.,4.8,0.,4.8,0.,4.8,0.,4.8
1979-07-01 00:04:00.100 ,5,0,0.,4.8,0.,4.8,0.,4.8,0.,4.8
1979-07-01 00:04:04.900 ,5,0,1.,4.8,0.,4.8,0.,4.8,0.,4.8
1979-07-01 00:04:09.700 ,5,0,0.,4.8,0.,4.8,0.,4.8,1.,4.8
1979-07-01 00:04:14.500 ,5,0,0.,4.8,0.,4.8,0.,4.8,0.,4.8
1979-07-01 00:04:19.300 ,5,0,0.,4.8,0.,4.8,0.,4.8,0.,4.8
1979-07-01 00:04:24.100 ,5,0,0.,4.8,0.,4.8,0.,4.8,0.,4.8
1979-07-01 00:04:28.900 ,5,0,1.,4.8,0.,4.8,0.,4.8,1.,4.8
1979-07-01 00:04:33.700 ,5,0,0.,4.8,0.,4.8,0.,4.8,0.,4.8
1979-07-01 00:04:38.500 ,5,0,0.,4.8,0.,4.8,0.,4.8,0.,4.8
1979-07-01 00:04:43.300 ,5,0,1.,4.8,0.,4.8,1.,4.8,0.,4.8
1979-07-01 00:04:48.100 ,6,0,0.,4.8,0.,4.8,0.,4.8,0.,4.8
1979-07-01 00:04:52.900 ,6,0,0.,4.8,0.,4.8,0.,4.8,0.,4.8
1979-07-01 00:04:57.700 ,6,0,1.,4.8,0.,4.8,0.,4.8,0.,4.8
1979-07-01 00:05:02.500 ,6,0,1.,4.8,0.,4.8,0.,4.8,0.,4.8
1979-07-01 00:05:07.300 ,6,0,0.,4.8,0.,4.8,0.,4.8,0.,4.8
1979-07-01 00:05:12.100 ,6,0,0.,4.8,0.,4.8,1.,4.8,0.,4.8
1979-07-01 00:05:16.900 ,6,0,1.,4.8,0.,4.8,1.,4.8,0.,4.8
1979-07-01 00:05:21.700 ,6,0,0.,4.8,0.,4.8,0.,4.8,0.,4.8
1979-07-01 00:05:26.500 ,6,0,0.,4.8,0.,4.8,0.,4.8,0.,4.8
1979-07-01 00:05:31.300 ,6,0,1.,4.8,0.,4.8,0.,4.8,0.,4.8
1979-07-01 00:05:36.100 ,7,0,2.,4.8,0.,4.8,0.,4.8,0.,4.8
1979-07-01 00:05:40.900 ,7,0,0.,4.8,0.,4.8,0.,4.8,0.,4.8
1979-07-01 00:05:45.700 ,7,0,0.,4.8,0.,4.8,0.,4.8,0.,4.8
1979-07-01 00:05:50.500 ,7,0,0.,4.8,0.,4.8,0.,4.8,0.,4.8
1979-07-01 00:05:55.300 ,7,0,1.,4.8,0.,4.8,0.,4.8,0.,4.8
1979-07-01 00:06:00.100 ,7,0,1.,4.8,0.,4.8,0.,4.8,0.,4.8
1979-07-01 00:06:04.900 ,7,0,2.,4.8,0.,4.8,0.,4.8,0.,4.8
1979-07-01 00:06:09.700 ,7,0,0.,4.8,0.,4.8,0.,4.8,0.,4.8
1979-07-01 00:06:14.500 ,7,0,1.,4.8,0.,4.8,0.,4.8,0.,4.8
1979-07-01 00:06:19.300 ,7,0,0.,4.8,0.,4.8,0.,4.8,0.,4.8
1979-07-01 00:06:24.100 ,7,0,1.,4.8,0.,4.8,0.,4.8,0.,4.8
1979-07-01 00:06:28.900 ,7,0,0.,4.8,0.,4.8,0.,4.8,0.,4.8
1979-07-01 00:06:33.700 ,7,0,0.,4.8,0.,4.8,0.,4.8,0.,4.8
1979-07-01 00:06:38.500 ,7,0,0.,4.8,0.,4.8,1.,4.8,0.,4.8
1979-07-01 00:06:43.300 ,7,0,1.,4.8,0.,4.8,1.,4.8,0.,4.8
1979-07-01 00:06:48.100 ,7,0,1.,4.8,0.,4.8,0.,4.8,0.,4.8
1979-07-01 00:06:52.900 ,7,0,0.,4.8,0.,4.8,0.,4.8,0.,4.8
1979-07-01 00:06:57.700 ,7,0,0.,4.8,0.,4.8,0.,4.8,0.,4.8
1979-07-01 00:07:02.500 ,7,0,0.,4.8,0.,4.8,0.,4.8,0.,4.8
1979-07-01 00:07:07.300 ,7,0,0.,4.8,0.,4.8,0.,4.8,0.,4.8
1979-07-01 00:07:12.100 ,6,0,0.,4.8,0.,4.8,0.,4.8,0.,4.8
1979-07-01 00:07:16.900 ,6,0,1.,4.8,0.,4.8,0.,4.8,0.,4.8
1979-07-01 00:07:21.700 ,6,0,1.,4.8,0.,4.8,0.,4.8,0.,4.8
1979-07-01 00:07:26.500 ,6,0,0.,4.8,0.,4.8,0.,4.8,0.,4.8
1979-07-01 00:07:31.300 ,6,0,1.,4.8,0.,4.8,2.,4.8,0.,4.8
1979-07-01 00:07:36.100 ,6,0,1.,4.8,0.,4.8,0.,4.8,0.,4.8
1979-07-01 00:07:40.900 ,6,0,0.,4.8,0.,4.8,0.,4.8,0.,4.8
1979-07-01 00:07:45.700 ,6,0,0.,4.8,0.,4.8,0.,4.8,0.,4.8
1979-07-01 00:07:50.500 ,6,0,2.,4.8,1.,4.8,0.,4.8,0.,4.8
1979-07-01 00:07:55.300 ,6,0,0.,4.8,0.,4.8,0.,4.8,0.,4.8
1979-07-01 00:08:00.100 ,5,0,0.,4.8,0.,4.8,0.,4.8,0.,4.8
1979-07-01 00:08:04.900 ,5,0,0.,4.8,0.,4.8,0.,4.8,0.,4.8
1979-07-01 00:08:09.700 ,5,0,0.,4.8,0.,4.8,1.,4.8,0.,4.8
1979-07-01 00:08:14.500 ,5,0,0.,4.8,0.,4.8,1.,4.8,0.,4.8
1979-07-01 00:08:19.300 ,5,0,0.,4.8,0.,4.8,0.,4.8,0.,4.8
1979-07-01 00:08:24.100 ,0,0,1.,4.8,0.,4.8,1.,4.8,0.,4.8
1979-07-01 00:08:28.900 ,0,0,0.,4.8,0.,4.8,0.,4.8,0.,4.8
1979-07-01 00:08:33.700 ,0,0,0.,4.8,0.,4.8,0.,4.8,0.,4.8
1979-07-01 00:08:38.500 ,0,0,0.,4.8,0.,4.8,0.,4.8,0.,4.8
1979-07-01 00:08:43.300 ,0,0,0.,4.8,0.,4.8,0.,4.8,0.,4.8
1979-07-01 00:08:53.500 ,0,0,,0,,0,,0,,0
1979-07-01 00:08:58.300 ,0,0,0.,4.8,0.,4.8,0.,4.8,0.,4.8
1979-07-01 00:09:03.100 ,0,0,0.,4.8,0.,4.8,0.,4.8,0.,4.8
1979-07-01 00:09:07.900 ,0,0,0.,4.8,0.,4.8,0.,4.8,0.,4.8
1979-07-01 00:09:12.700 ,0,0,0.,4.8,0.,4.8,0.,4.8,0.,4.8
1979-07-01 00:09:12.100 ,0,0,0.,4.8,0.,4.8,0.,4.8,0.,4.8
1979-07-01 00:09:16.900 ,0,0,1.,4.8,0.,4.8,0.,4.8,0.,4.8
1979-07-01 00:09:21.700 ,0,0,1.,4.8,0.,4.8,0.,4.8,0.,4.8
1979-07-01 00:09:26.500 ,0,0,0.,4.8,0.,4.8,0.,4.8,0.,4.8
1979-07-01 00:09:31.300 ,0,0,1.,4.8,0.,4.8,0.,4.8,0.,4.8
1979-07-01 00:09:36.100 ,3,0,0.,4.8,0.,4.8,0.,4.8,0.,4.8
1979-07-01 00:09:40.900 ,3,0,0.,4.8,0.,4.8,0.,4.8,0.,4.8
1979-07-01 00:09:45.700 ,3,0,1.,4.8,0.,4.8,0.,4.8,0.,4.8
1979-07-01 00:09:50.500 ,3,0,1.,4.8,0.,4.8,0.,4.8,0.,4.8
1979-07-01 00:09:55.300 ,3,0,0.,4.8,0.,4.8,0.,4.8,0.,4.8
1979-07-01 00:10:00.100 ,3,0,0.,4.8,0.,4.8,0.,4.8,0.,4.8
1979-07-01 00:10:04.900 ,3,0,0.,4.8,0.,4.8,0.,4.8,0.,4.8
1979-07-01 00:10:09.700 ,3,0,1.,4.8,0.,4.8,0.,4.8,0.,4.8
1979-07-01 00:10:14.500 ,3,0,0.,4.8,0.,4.8,0.,4.8,0.,4.8
1979-07-01 00:10:19.300 ,3,0,1.,4.8,0.,4.8,0.,4.8,0.,4.8
1979-07-01 00:10:24.100 ,2,0,0.,4.8,0.,4.8,0.,4.8,0.,4.8
1979-07-01 00:10:28.900 ,2,0,0.,4.8,0.,4.8,0.,4.8,0.,4.8
1979-07-01 00:10:33.700 ,2,0,1.,4.8,0.,4.8,1.,4.8,0.,4.8
1979-07-01 00:10:38.500 ,2,0,0.,4.8,0.,4.8,0.,4.8,0.,4.8
1979-07-01 00:10:43.300 ,2,0,0.,4.8,0.,4.8,1.,4.8,0.,4.8
1979-07-01 00:10:48.100 ,2,0,0.,4.8,0.,4.8,1.,4.8,0.,4.8
1979-07-01 00:10:52.900 ,2,0,1.,4.8,0.,4.8,0.,4.8,0.,4.8
1979-07-01 00:10:57.700 ,2,0,0.,4.8,0.,4.8,0.,4.8,0.,4.8
1979-07-01 00:11:02.500 ,2,0,1.,4.8,0.,4.8,0.,4.8,0.,4.8
1979-07-01 00:11:07.300 ,2,0,1.,4.8,0.,4.8,0.,4.8,0.,4.8
1979-07-01 00:11:12.100 ,1,0,0.,4.8,0.,4.8,0.,4.8,0.,4.8
1979-07-01 00:11:16.900 ,1,0,1.,4.8,0.,4.8,0.,4.8,0.,4.8
1979-07-01 00:11:21.700 ,1,0,1.,4.8,0.,4.8,0.,4.8,0.,4.8
1979-07-01 00:11:26.500 ,1,0,1.,4.8,0.,4.8,0.,4.8,0.,4.8
1979-07-01 00:11:31.300 ,1,0,0.,4.8,0.,4.8,1.,4.8,0.,4.8
1979-07-01 00:11:36.100 ,1,0,0.,4.8,0.,4.8,0.,4.8,0.,4.8
1979-07-01 00:11:40.900 ,1,0,1.,4.8,0.,4.8,0.,4.8,0.,4.8
1979-07-01 00:11:45.700 ,1,0,0.,4.8,0.,4.8,0.,4.8,0.,4.8
1979-07-01 00:11:50.500 ,1,0,0.,4.8,0.,4.8,0.,4.8,0.,4.8
1979-07-01 00:11:55.300 ,1,0,1.,4.8,0.,4.8,0.,4.8,0.,4.8
1979-07-01 00:12:00.100 ,0,0,1.,4.8,0.,4.8,0.,4.8,0.,4.8
1979-07-01 00:12:04.900 ,0,0,0.,4.8,0.,4.8,0.,4.8,0.,4.8
1979-07-01 00:12:09.700 ,0,0,0.,4.8,0.,4.8,0.,4.8,0.,4.8
1979-07-01 00:12:14.500 ,0,0,1.,4.8,0.,4.8,1.,4.8,0.,4.8
1979-07-01 00:12:19.300 ,0,0,0.,4.8,0.,4.8,0.,4.8,0.,4.8
1979-07-01 00:12:24.100 ,0,0,0.,4.8,0.,4.8,1.,4.8,0.,4.8
1979-07-01 00:12:28.900 ,0,0,1.,4.8,0.,4.8,0.,4.8,0.,4.8
1979-07-01 00:12:33.700 ,0,0,0.,4.8,0.,4.8,0.,4.8,0.,4.8
1979-07-01 00:12:38.500 ,0,0,1.,4.8,0.,4.8,0.,4.8,0.,4.8
1979-07-01 00:12:43.300 ,0,0,0.,4.8,0.,4.8,0.,4.8,0.,4.8
1979-07-01 00:12:48.100 ,0,0,1.,4.8,0.,4.8,0.,4.8,0.,4.8
1979-07-01 00:12:52.900 ,0,0,1.,4.8,0.,4.8,0.,4.8,0.,4.8
1979-07-01 00:12:57.700 ,0,0,1.,4.8,0.,4.8,1.,4.8,1.,4.8
1979-07-01 00:13:02.500 ,0,0,0.,4.8,0.,4.8,0.,4.8,0.,4.8
1979-07-01 00:13:07.300 ,0,0,0.,4.8,0.,4.8,0.,4.8,0.,4.8
1979-07-01 00:13:12.100 ,0,0,1.,4.8,0.,4.8,0.,4.8,0.,4.8
1979-07-01 00:13:16.900 ,0,0,0.,4.8,0.,4.8,2.,4.8,0.,4.8
1979-07-01 00:13:21.700 ,0,0,0.,4.8,0.,4.8,0.,4.8,0.,4.8
1979-07-01 00:13:26.500 ,0,0,0.,4.8,0.,4.8,0.,4.8,0.,4.8
1979-07-01 00:13:31.300 ,0,0,1.,4.8,0.,4.8,0.,4.8,0.,4.8
1979-07-01 00:13:36.100 ,1,0,0.,4.8,0.,4.8,0.,4.8,0.,4.8
1979-07-01 00:13:40.900 ,1,0,0.,4.8,0.,4.8,1.,4.8,0.,4.8
1979-07-01 00:13:45.700 ,1,0,0.,4.8,0.,4.8,0.,4.8,0.,4.8
1979-07-01 00:13:50.500 ,1,0,2.,4.8,0.,4.8,0.,4.8,0.,4.8
1979-07-01 00:13:55.300 ,1,0,0.,4.8,0.,4.8,0.,4.8,0.,4.8
1979-07-01 00:14:00.100 ,1,0,0.,4.8,0.,4.8,0.,4.8,0.,4.8
1979-07-01 00:14:04.900 ,1,0,0.,4.8,0.,4.8,0.,4.8,0.,4.8
1979-07-01 00:14:09.700 ,1,0,1.,4.8,0.,4.8,0.,4.8,0.,4.8
1979-07-01 00:14:14.500 ,1,0,1.,4.8,0.,4.8,1.,4.8,0.,4.8
1979-07-01 00:14:19.300 ,1,0,0.,4.8,0.,4.8,0.,4.8,0.,4.8
1979-07-01 00:14:24.100 ,2,0,0.,4.8,0.,4.8,0.,4.8,0.,4.8
1979-07-01 00:14:28.900 ,2,0,0.,4.8,0.,4.8,0.,4.8,0.,4.8
1979-07-01 00:14:33.700 ,2,0,0.,4.8,0.,4.8,0.,4.8,0.,4.8
1979-07-01 00:14:38.500 ,2,0,1.,4.8,0.,4.8,0.,4.8,0.,4.8
1979-07-01 00:14:43.300 ,2,0,1.,4.8,1.,4.8,1.,4.8,0.,4.8
1979-07-01 00:14:48.100 ,2,0,0.,4.8,0.,4.8,0.,4.8,0.,4.8
1979-07-01 00:14:52.900 ,2,0,1.,4.8,0.,4.8,0.,4.8,0.,4.8
1979-07-01 00:14:57.700 ,2,0,0.,4.8,0.,4.8,0.,4.8,0.,4.8
1979-07-01 00:15:02.500 ,2,0,0.,4.8,0.,4.8,0.,4.8,0.,4.8
1979-07-01 00:15:07.300 ,2,0,0.,4.8,0.,4.8,0.,4.8,0.,4.8
1979-07-01 00:15:12.100 ,3,0,0.,4.8,0.,4.8,0.,4.8,0.,4.8
1979-07-01 00:15:16.900 ,3,0,1.,4.8,0.,4.8,0.,4.8,0.,4.8
1979-07-01 00:15:21.700 ,3,0,0.,4.8,0.,4.8,0.,4.8,0.,4.8
1979-07-01 00:15:26.500 ,3,0,0.,4.8,0.,4.8,0.,4.8,0.,4.8
1979-07-01 00:15:31.300 ,3,0,0.,4.8,0.,4.8,0.,4.8,0.,4.8
1979-07-01 00:15:36.100 ,3,0,1.,4.8,0.,4.8,0.,4.8,0.,4.8
1979-07-01 00:15:40.900 ,3,0,1.,4.8,0.,4.8,0.,4.8,0.,4.8
1979-07-01 00:15:45.700 ,3,0,1.,4.8,0.,4.8,0.,4.8,0.,4.8
1979-07-01 00:15:50.500 ,3,0,0.,4.8,1.,4.8,0.,4.8,0.,4.8
1979-07-01 00:15:55.300 ,3,0,0.,4.8,0.,4.8,0.,4.8,0.,4.8
1979-07-01 00:16:00.100 ,4,0,0.,4.8,0.,4.8,0.,4.8,0.,4.8
1979-07-01 00:16:04.900 ,4,0,0.,4.8,0.,4.8,0.,4.8,0.,4.8
1979-07-01 00:16:09.700 ,4,0,0.,4.8,0.,4.8,0.,4.8,0.,4.8
1979-07-01 00:16:14.500 ,4,0,0.,4.8,0.,4.8,0.,4.8,0.,4.8
1979-07-01 00:16:19.300 ,4,0,0.,4.8,0.,4.8,0.,4.8,1.,4.8
1979-07-01 00:16:24.100 ,4,0,1.,4.8,0.,4.8,0.,4.8,0.,4.8
1979-07-01 00:16:28.900 ,4,0,0.,4.8,0.,4.8,0.,4.8,0.,4.8
1979-07-01 00:16:33.700 ,4,0,0.,4.8,0.,4.8,0.,4.8,0.,4.8
1979-07-01 00:16:38.500 ,4,0,0.,4.8,0.,4.8,0.,4.8,0.,4.8
1979-07-01 00:16:43.300 ,4,0,1.,4.8,0.,4.8,0.,4.8,0.,4.8
1979-07-01 00:16:48.100 ,5,0,0.,4.8,0.,4.8,0.,4.8,0.,4.8
1979-07-01 00:16:52.900 ,5,0,0.,4.8,0.,4.8,0.,4.8,0.,4.8
1979-07-01 00:16:57.700 ,5,0,1.,4.8,0.,4.8,0.,4.8,0.,4.8
1979-07-01 00:17:02.500 ,5,0,0.,4.8,0.,4.8,0.,4.8,0.,4.8
1979-07-01 00:17:07.300 ,5,0,1.,4.8,0.,4.8,0.,4.8,0.,4.8
1979-07-01 00:17:12.100 ,5,0,0.,4.8,0.,4.8,0.,4.8,0.,4.8
1979-07-01 00:17:16.900 ,5,0,0.,4.8,0.,4.8,0.,4.8,0.,4.8
1979-07-01 00:17:21.700 ,5,0,0.,4.8,0.,4.8,1.,4.8,0.,4.8
1979-07-01 00:17:26.500 ,5,0,0.,4.8,0.,4.8,1.,4.8,0.,4.8
1979-07-01 00:17:31.300 ,5,0,0.,4.8,0.,4.8,0.,4.8,0.,4.8
1979-07-01 00:17:36.100 ,6,0,0.,4.8,0.,4.8,0.,4.8,0.,4.8
1979-07-01 00:17:40.900 ,6,0,1.,4.8,0.,4.8,0.,4.8,0.,4.8
1979-07-01 00:17:45.700 ,6,0,0.,4.8,0.,4.8,0.,4.8,0.,4.8
1979-07-01 00:17:50.500 ,6,0,0.,4.8,0.,4.8,0.,4.8,0.,4.8
1979-07-01 00:17:55.300 ,6,0,0.,4.8,0.,4.8,0.,4.8,0.,4.8
1979-07-01 00:18:00.100 ,6,0,0.,4.8,0.,4.8,0.,4.8,0.,4.8
1979-07-01 00:18:04.900 ,6,0,0.,4.8,0.,4.8,0.,4.8,0.,4.8
1979-07-01 00:18:09.700 ,6,0,0.,4.8,0.,4.8,0.,4.8,0.,4.8
1979-07-01 00:18:14.500 ,6,0,0.,4.8,0.,4.8,0.,4.8,0.,4.8
1979-07-01 00:18:19.300 ,6,0,1.,4.8,0.,4.8,0.,4.8,0.,4.8
1979-07-01 00:18:24.100 ,7,0,2.,4.8,0.,4.8,0.,4.8,0.,4.8
1979-07-01 00:18:28.900 ,7,0,0.,4.8,0.,4.8,1.,4.8,0.,4.8
1979-07-01 00:18:33.700 ,7,0,0.,4.8,0.,4.8,1.,4.8,0.,4.8
1979-07-01 00:18:38.500 ,7,0,0.,4.8,0.,4.8,0.,4.8,0.,4.8
1979-07-01 00:18:43.300 ,7,0,1.,4.8,0.,4.8,0.,4.8,0.,4.8
1979-07-01 00:18:48.100 ,7,0,0.,4.8,0.,4.8,0.,4.8,0.,4.8
1979-07-01 00:18:52.900 ,7,0,0.,4.8,0.,4.8,0.,4.8,0.,4.8
1979-07-01 00:18:57.700 ,7,0,0.,4.8,0.,4.8,0.,4.8,0.,4.8
1979-07-01 00:19:02.500 ,7,0,0.,4.8,0.,4.8,0.,4.8,0.,4.8
1979-07-01 00:19:07.300 ,7,0,0.,4.8,0.,4.8,0.,4.8,0.,4.8
1979-07-01 00:19:12.100 ,3,1,0.,4.8,0.,4.8,0.,4.8,0.,4.8
1979-07-01 00:19:16.900 ,3,1,1.,4.8,0.,4.8,0.,4.8,0.,4.8
1979-07-01 00:19:21.700 ,3,1,0.,4.8,0.,4.8,0.,4.8,0.,4.8
1979-07-01 00:19:26.500 ,3,1,1.,4.8,0.,4.8,0.,4.8,0.,4.8
1979-07-01 00:19:31.300 ,3,1,1.,4.8,0.,4.8,0.,4.8,0.,4.8
1979-07-01 00:19:36.100 ,0,1,0.,4.8,0.,4.8,0.,4.8,0.,4.8
1979-07-01 00:19:40.900 ,0,1,1.,4.8,0.,4.8,0.,4.8,0.,4.8
1979-07-01 00:19:45.700 ,0,1,1.,4.8,0.,4.8,0.,4.8,0.,4.8
1979-07-01 00:19:50.500 ,0,1,0.,4.8,0.,4.8,0.,4.8,0.,4.8
1979-07-01 00:19:55.300 ,0,1,0.,4.8,0.,4.8,0.,4.8,0.,4.8
1979-07-01 00:20:00.100 ,4,1,1.,4.8,0.,4.8,0.,4.8,0.,4.8
1979-07-01 00:20:04.900 ,4,1,0.,4.8,0.,4.8,1.,4.8,0.,4.8
1979-07-01 00:20:09.700 ,4,1,0.,4.8,0.,4.8,0.,4.8,0.,4.8
1979-07-01 00:20:14.500 ,4,1,1.,4.8,0.,4.8,0.,4.8,0.,4.8
1979-07-01 00:20:19.300 ,4,1,0.,4.8,0.,4.8,0.,4.8,0.,4.8
1979-07-01 00:20:24.100 ,7,1,0.,4.8,0.,4.8,0.,4.8,0.,4.8
1979-07-01 00:20:28.900 ,7,1,2.,4.8,0.,4.8,0.,4.8,0.,4.8
1979-07-01 00:20:33.700 ,7,1,0.,4.8,0.,4.8,0.,4.8,0.,4.8
1979-07-01 00:20:38.500 ,7,1,1.,4.8,0.,4.8,1.,4.8,0.,4.8
1979-07-01 00:20:43.300 ,7,1,0.,4.8,0.,4.8,0.,4.8,0.,4.8
1979-07-01 00:20:48.100 ,3,1,0.,4.8,0.,4.8,0.,4.8,0.,4.8
1979-07-01 00:20:52.900 ,3,1,0.,4.8,0.,4.8,0.,4.8,0.,4.8
1979-07-01 00:20:57.700 ,3,1,0.,4.8,0.,4.8,0.,4.8,0.,4.8
1979-07-01 00:21:02.500 ,3,1,0.,4.8,0.,4.8,0.,4.8,0.,4.8
1979-07-01 00:21:07.300 ,3,1,0.,4.8,1.,4.8,0.,4.8,0.,4.8
1979-07-01 00:21:12.100 ,0,1,0.,4.8,0.,4.8,0.,4.8,0.,4.8
1979-07-01 00:21:16.900 ,0,1,1.,4.8,0.,4.8,0.,4.8,0.,4.8
1979-07-01 00:21:21.700 ,0,1,0.,4.8,0.,4.8,0.,4.8,0.,4.8
1979-07-01 00:21:26.500 ,0,1,0.,4.8,0.,4.8,0.,4.8,0.,4.8
1979-07-01 00:21:31.300 ,0,1,0.,4.8,0.,4.8,0.,4.8,0.,4.8
1979-07-01 00:21:36.100 ,4,1,0.,4.8,0.,4.8,0.,4.8,0.,4.8
1979-07-01 00:21:40.900 ,4,1,0.,4.8,0.,4.8,0.,4.8,0.,4.8
1979-07-01 00:21:45.700 ,4,1,1.,4.8,0.,4.8,0.,4.8,0.,4.8
1979-07-01 00:21:50.500 ,4,1,0.,4.8,0.,4.8,0.,4.8,0.,4.8
1979-07-01 00:21:55.300 ,4,1,1.,4.8,0.,4.8,0.,4.8,0.,4.8
1979-07-01 00:22:00.100 ,7,1,1.,4.8,0.,4.8,0.,4.8,0.,4.8
1979-07-01 00:22:04.900 ,7,1,2.,4.8,0.,4.8,0.,4.8,0.,4.8
1979-07-01 00:22:09.700 ,7,1,1.,4.8,0.,4.8,0.,4.8,0.,4.8
1979-07-01 00:22:14.500 ,7,1,0.,4.8,0.,4.8,0.,4.8,0.,4.8
1979-07-01 00:22:19.300 ,7,1,0.,4.8,0.,4.8,0.,4.8,0.,4.8
1979-07-01 00:22:24.100 ,3,1,0.,4.8,0.,4.8,0.,4.8,0.,4.8
1979-07-01 00:22:28.900 ,3,1,2.,4.8,0.,4.8,0.,4.8,0.,4.8
1979-07-01 00:22:33.700 ,3,1,0.,4.8,0.,4.8,0.,4.8,0.,4.8
1979-07-01 00:22:38.500 ,3,1,1.,4.8,0.,4.8,0.,4.8,0.,4.8
1979-07-01 00:22:43.300 ,3,1,0.,4.8,0.,4.8,0.,4.8,0.,4.8
1979-07-01 00:22:48.100 ,0,1,1.,4.8,0.,4.8,0.,4.8,0.,4.8
1979-07-01 00:22:52.900 ,0,1,0.,4.8,0.,4.8,0.,4.8,0.,4.8
1979-07-01 00:22:57.700 ,0,1,0.,4.8,0.,4.8,0.,4.8,0.,4.8
1979-07-01 00:23:02.500 ,0,1,1.,4.8,0.,4.8,0.,4.8,0.,4.8
1979-07-01 00:23:07.300 ,0,1,0.,4.8,0.,4.8,0.,4.8,0.,4.8
1979-07-01 00:23:12.100 ,4,1,1.,4.8,0.,4.8,0.,4.8,0.,4.8
1979-07-01 00:23:16.900 ,4,1,0.,4.8,0.,4.8,0.,4.8,0.,4.8
1979-07-01 00:23:21.700 ,4,1,1.,4.8,0.,4.8,0.,4.8,0.,4.8
1979-07-01 00:23:26.500 ,4,1,0.,4.8,0.,4.8,0.,4.8,0.,4.8
1979-07-01 00:23:31.300 ,4,1,0.,4.8,0.,4.8,0.,4.8,0.,4.8
1979-07-01 00:23:36.100 ,7,1,0.,4.8,0.,4.8,0.,4.8,0.,4.8
1979-07-01 00:23:40.900 ,7,1,0.,4.8,0.,4.8,0.,4.8,0.,4.8
1979-07-01 00:23:45.700 ,7,1,1.,4.8,0.,4.8,1.,4.8,0.,4.8
1979-07-01 00:23:50.500 ,7,1,0.,4.8,0.,4.8,0.,4.8,0.,4.8
1979-07-01 00:23:55.300 ,7,1,0.,4.8,0.,4.8,0.,4.8,0.,4.8
1979-07-01 00:24:00.100 ,3,1,1.,4.8,0.,4.8,0.,4.8,0.,4.8
1979-07-01 00:24:04.900 ,3,1,1.,4.8,0.,4.8,0.,4.8,0.,4.8
1979-07-01 00:24:09.700 ,3,1,0.,4.8,0.,4.8,0.,4.8,1.,4.8
1979-07-01 00:24:14.500 ,3,1,0.,4.8,0.,4.8,0.,4.8,0.,4.8
1979-07-01 00:24:19.300 ,3,1,0.,4.8,0.,4.8,0.,4.8,0.,4.8
1979-07-01 00:24:24.100 ,0,1,1.,4.8,0.,4.8,0.,4.8,0.,4.8
1979-07-01 00:24:28.900 ,0,1,0.,4.8,0.,4.8,0.,4.8,0.,4.8
1979-07-01 00:24:33.700 ,0,1,0.,4.8,0.,4.8,0.,4.8,0.,4.8
1979-07-01 00:24:38.500 ,0,1,0.,4.8,0.,4.8,0.,4.8,0.,4.8
1979-07-01 00:24:43.300 ,0,1,0.,4.8,0.,4.8,0.,4.8,0.,4.8
1979-07-01 00:24:48.100 ,4,1,0.,4.8,0.,4.8,0.,4.8,0.,4.8
1979-07-01 00:24:52.900 ,4,1,0.,4.8,0.,4.8,0.,4.8,1.,4.8
1979-07-01 00:24:57.700 ,4,1,0.,4.8,0.,4.8,0.,4.8,0.,4.8
1979-07-01 00:25:02.500 ,4,1,0.,4.8,0.,4.8,0.,4.8,0.,4.8
1979-07-01 00:25:07.300 ,4,1,1.,4.8,0.,4.8,0.,4.8,0.,4.8
1979-07-01 00:25:12.100 ,7,1,0.,4.8,0.,4.8,0.,4.8,0.,4.8
1979-07-01 00:25:16.900 ,7,1,1.,4.8,0.,4.8,0.,4.8,0.,4.8
1979-07-01 00:25:21.700 ,7,1,0.,4.8,0.,4.8,0.,4.8,0.,4.8
1979-07-01 00:25:26.500 ,7,1,0.,4.8,0.,4.8,0.,4.8,0.,4.8
1979-07-01 00:25:31.300 ,7,1,1.,4.8,0.,4.8,0.,4.8,0.,4.8
1979-07-01 00:25:36.100 ,3,1,0.,4.8,0.,4.8,0.,4.8,0.,4.8
1979-07-01 00:25:40.900 ,3,1,0.,4.8,0.,4.8,0.,4.8,0.,4.8
1979-07-01 00:25:45.700 ,3,1,0.,4.8,0.,4.8,0.,4.8,0.,4.8
1979-07-01 00:25:50.500 ,3,1,0.,4.8,1.,4.8,0.,4.8,0.,4.8
1979-07-01 00:25:55.300 ,3,1,0.,4.8,0.,4.8,0.,4.8,0.,4.8
1979-07-01 00:26:00.100 ,0,1,1.,4.8,0.,4.8,0.,4.8,0.,4.8
1979-07-01 00:26:04.900 ,0,1,0.,4.8,0.,4.8,0.,4.8,0.,4.8
1979-07-01 00:26:09.700 ,0,1,0.,4.8,0.,4.8,0.,4.8,0.,4.8
1979-07-01 00:26:14.500 ,0,1,0.,4.8,0.,4.8,0.,4.8,0.,4.8
1979-07-01 00:26:19.300 ,0,1,0.,4.8,0.,4.8,0.,4.8,0.,4.8
1979-07-01 00:26:24.100 ,4,1,0.,4.8,0.,4.8,1.,4.8,0.,4.8
1979-07-01 00:26:28.900 ,4,1,0.,4.8,0.,4.8,0.,4.8,0.,4.8
1979-07-01 00:26:33.700 ,4,1,0.,4.8,0.,4.8,0.,4.8,1.,4.8
1979-07-01 00:26:38.500 ,4,1,0.,4.8,0.,4.8,0.,4.8,0.,4.8
1979-07-01 00:26:43.300 ,4,1,0.,4.8,0.,4.8,0.,4.8,0.,4.8
1979-07-01 00:26:48.100 ,7,1,1.,4.8,0.,4.8,0.,4.8,1.,4.8
1979-07-01 00:26:52.900 ,7,1,0.,4.8,0.,4.8,0.,4.8,0.,4.8
1979-07-01 00:26:57.700 ,7,1,0.,4.8,0.,4.8,0.,4.8,0.,4.8
1979-07-01 00:27:02.500 ,7,1,0.,4.8,0.,4.8,0.,4.8,0.,4.8
1979-07-01 00:27:07.300 ,7,1,0.,4.8,0.,4.8,0.,4.8,0.,4.8
1979-07-01 00:27:12.100 ,3,1,0.,4.8,0.,4.8,0.,4.8,0.,4.8
1979-07-01 00:27:16.900 ,3,1,0.,4.8,1.,4.8,0.,4.8,0.,4.8
1979-07-01 00:27:21.700 ,3,1,0.,4.8,0.,4.8,0.,4.8,0.,4.8
1979-07-01 00:27:26.500 ,3,1,1.,4.8,0.,4.8,0.,4.8,0.,4.8
1979-07-01 00:27:31.300 ,3,1,0.,4.8,0.,4.8,0.,4.8,0.,4.8
1979-07-01 00:27:36.100 ,0,1,0.,4.8,0.,4.8,0.,4.8,0.,4.8
1979-07-01 00:27:40.900 ,0,1,0.,4.8,0.,4.8,0.,4.8,0.,4.8
1979-07-01 00:27:45.700 ,0,1,1.,4.8,0.,4.8,0.,4.8,0.,4.8
1979-07-01 00:27:50.500 ,0,1,0.,4.8,0.,4.8,0.,4.8,0.,4.8
1979-07-01 00:27:55.300 ,0,1,0.,4.8,0.,4.8,0.,4.8,0.,4.8
1979-07-01 00:28:00.100 ,4,1,1.,4.8,0.,4.8,0.,4.8,0.,4.8
1979-07-01 00:28:04.900 ,4,1,0.,4.8,0.,4.8,0.,4.8,0.,4.8
1979-07-01 00:28:09.700 ,4,1,0.,4.8,0.,4.8,0.,4.8,0.,4.8
1979-07-01 00:28:14.500 ,4,1,0.,4.8,0.,4.8,0.,4.8,0.,4.8
1979-07-01 00:28:19.300 ,4,1,0.,4.8,0.,4.8,0.,4.8,0.,4.8
1979-07-01 00:28:24.100 ,7,1,0.,4.8,0.,4.8,0.,4.8,0.,4.8
1979-07-01 00:28:28.900 ,7,1,0.,4.8,0.,4.8,0.,4.8,0.,4.8
1979-07-01 00:28:33.700 ,7,1,0.,4.8,0.,4.8,0.,4.8,0.,4.8
1979-07-01 00:28:38.500 ,7,1,1.,4.8,0.,4.8,0.,4.8,1.,4.8
1979-07-01 00:28:43.300 ,7,1,0.,4.8,0.,4.8,0.,4.8,0.,4.8
1979-07-01 00:28:48.100 ,3,1,0.,4.8,0.,4.8,1.,4.8,0.,4.8
1979-07-01 00:28:52.900 ,3,1,0.,4.8,0.,4.8,0.,4.8,0.,4.8
1979-07-01 00:28:57.700 ,3,1,0.,4.8,0.,4.8,0.,4.8,0.,4.8
1979-07-01 00:29:02.500 ,3,1,0.,4.8,0.,4.8,1.,4.8,0.,4.8
1979-07-01 00:29:07.300 ,3,1,0.,4.8,0.,4.8,0.,4.8,0.,4.8
1979-07-01 00:29:12.100 ,0,1,0.,4.8,0.,4.8,0.,4.8,0.,4.8
1979-07-01 00:29:16.900 ,0,1,0.,4.8,0.,4.8,0.,4.8,0.,4.8
1979-07-01 00:29:21.700 ,0,1,1.,4.8,0.,4.8,0.,4.8,0.,4.8
1979-07-01 00:29:26.500 ,0,1,0.,4.8,0.,4.8,0.,4.8,0.,4.8
1979-07-01 00:29:31.300 ,0,1,0.,4.8,0.,4.8,0.,4.8,0.,4.8
1979-07-01 00:29:36.100 ,0,0,2.,4.8,0.,4.8,1.,4.8,0.,4.8
1979-07-01 00:29:40.900 ,0,0,0.,4.8,0.,4.8,0.,4.8,0.,4.8
1979-07-01 00:29:45.700 ,0,0,0.,4.8,0.,4.8,0.,4.8,0.,4.8
1979-07-01 00:29:50.500 ,0,0,0.,4.8,0.,4.8,0.,4.8,0.,4.8
1979-07-01 00:29:55.300 ,0,0,0.,4.8,0.,4.8,0.,4.8,0.,4.8
1979-07-01 00:30:00.100 ,0,0,0.,4.8,0.,4.8,0.,4.8,0.,4.8
1979-07-01 00:30:04.900 ,0,0,0.,4.8,0.,4.8,0.,4.8,0.,4.8
1979-07-01 00:30:09.700 ,0,0,0.,4.8,0.,4.8,1.,4.8,0.,4.8
1979-07-01 00:30:14.500 ,0,0,0.,4.8,0.,4.8,0.,4.8,0.,4.8
1979-07-01 00:30:19.300 ,0,0,0.,4.8,0.,4.8,0.,4.8,0.,4.8
1979-07-01 00:30:24.100 ,5,0,0.,4.8,0.,4.8,0.,4.8,0.,4.8
1979-07-01 00:30:28.900 ,5,0,1.,4.8,0.,4.8,0.,4.8,0.,4.8
1979-07-01 00:30:33.700 ,5,0,0.,4.8,0.,4.8,0.,4.8,0.,4.8
1979-07-01 00:30:38.500 ,5,0,1.,4.8,0.,4.8,0.,4.8,0.,4.8
1979-07-01 00:30:43.300 ,5,0,1.,4.8,0.,4.8,0.,4.8,0.,4.8
1979-07-01 00:30:48.100 ,5,0,0.,4.8,1.,4.8,0.,4.8,0.,4.8
1979-07-01 00:30:52.900 ,5,0,0.,4.8,0.,4.8,0.,4.8,0.,4.8
1979-07-01 00:30:57.700 ,5,0,1.,4.8,0.,4.8,0.,4.8,0.,4.8
1979-07-01 00:31:02.500 ,5,0,1.,4.8,1.,4.8,0.,4.8,0.,4.8
1979-07-01 00:31:07.300 ,5,0,0.,4.8,0.,4.8,1.,4.8,0.,4.8
1979-07-01 00:31:12.100 ,4,0,1.,4.8,0.,4.8,0.,4.8,0.,4.8
1979-07-01 00:31:16.900 ,4,0,1.,4.8,0.,4.8,0.,4.8,0.,4.8
1979-07-01 00:31:21.700 ,4,0,0.,4.8,0.,4.8,0.,4.8,0.,4.8
1979-07-01 00:31:26.500 ,4,0,0.,4.8,1.,4.8,0.,4.8,0.,4.8
1979-07-01 00:31:31.300 ,4,0,0.,4.8,1.,4.8,0.,4.8,0.,4.8
1979-07-01 00:31:36.100 ,4,0,0.,4.8,0.,4.8,0.,4.8,0.,4.8
1979-07-01 00:31:40.900 ,4,0,0.,4.8,0.,4.8,0.,4.8,0.,4.8
1979-07-01 00:31:45.700 ,4,0,0.,4.8,0.,4.8,0.,4.8,0.,4.8
1979-07-01 00:31:50.500 ,4,0,0.,4.8,0.,4.8,0.,4.8,0.,4.8
1979-07-01 00:31:55.300 ,4,0,0.,4.8,0.,4.8,0.,4.8,0.,4.8
1979-07-01 00:32:00.100 ,3,0,0.,4.8,0.,4.8,0.,4.8,0.,4.8
1979-07-01 00:32:04.900 ,3,0,0.,4.8,0.,4.8,1.,4.8,0.,4.8
1979-07-01 00:32:09.700 ,3,0,0.,4.8,0.,4.8,0.,4.8,0.,4.8
1979-07-01 00:32:14.500 ,3,0,0.,4.8,0.,4.8,0.,4.8,0.,4.8
1979-07-01 00:32:19.300 ,3,0,1.,4.8,0.,4.8,0.,4.8,0.,4.8
1979-07-01 00:32:24.100 ,3,0,0.,4.8,0.,4.8,0.,4.8,0.,4.8
1979-07-01 00:32:28.900 ,3,0,1.,4.8,0.,4.8,0.,4.8,0.,4.8
1979-07-01 00:32:33.700 ,3,0,0.,4.8,0.,4.8,0.,4.8,0.,4.8
1979-07-01 00:32:38.500 ,3,0,1.,4.8,0.,4.8,0.,4.8,0.,4.8
1979-07-01 00:32:43.300 ,3,0,1.,4.8,0.,4.8,0.,4.8,0.,4.8
1979-07-01 00:32:48.100 ,2,0,0.,4.8,0.,4.8,0.,4.8,0.,4.8
1979-07-01 00:32:52.900 ,2,0,0.,4.8,0.,4.8,0.,4.8,0.,4.8
1979-07-01 00:32:57.700 ,2,0,2.,4.8,0.,4.8,1.,4.8,0.,4.8
1979-07-01 00:33:02.500 ,2,0,1.,4.8,0.,4.8,0.,4.8,0.,4.8
1979-07-01 00:33:07.300 ,2,0,0.,4.8,0.,4.8,0.,4.8,0.,4.8
1979-07-01 00:33:12.100 ,2,0,1.,4.8,0.,4.8,0.,4.8,0.,4.8
1979-07-01 00:33:16.900 ,2,0,0.,4.8,0.,4.8,0.,4.8,0.,4.8